Mitchell, SD

4:51 PM CST on November 11, 2019 (GMT -0600)
Mitchell Municipal

Weather History for KMHE - September, 2019

Change the Weather History Date:

Tuesday, September 24, 2019

  Actual Average Record
Temperature  
Mean Temperature 68 °F 59 °F  
Max Temperature 80 °F 72 °F 94 °F (1935)
Min Temperature 56 °F 46 °F 23 °F (1965)
Degree Days  
Heating Degree Days 0 7  
Month to date heating degree days 6 91  
Since 1 July heating degree days 15 108  
Cooling Degree Days 3 1  
Month to date cooling degree days 142 67  
Year to date cooling degree days 936 812  
Growing Degree Days 18 (Base 50)    
Moisture  
Dew Point 55 °F    
Average Humidity 63    
Maximum Humidity 86    
Minimum Humidity 39    
Precipitation  
Precipitation 0.00 in 0.08 in 1.70 in (1934)
Month to date precipitation 7.61 1.89  
Year to date precipitation 32.65 18.24  
Snow  
Snow 0.00 in - T in (1912)
Month to date snowfall 0.0  
Since 1 July snowfall 0.0  
Since 1 September snowfall 0.0  
Snow Depth 0.00 in    
Sea Level Pressure  
Sea Level Pressure 29.72 in    
Wind  
Wind Speed 8 mph (WSW)    
Max Wind Speed 17 mph    
Max Gust Speed 26 mph    
Visibility 10 miles    
Events      
T = Trace of Precipitation, MM = Missing Value Source: NWS Daily Summary

Daily Weather History Graph

Daily Weather History Graph

Search for Another Location

Airport or City:

Astronomy

Sep. 24, 2019 Rise Set
Actual Time 7:21 AM CDT 7:26 PM CDT
Civil Twilight 6:52 AM CDT 7:54 PM CDT
Nautical Twilight 6:19 AM CDT 8:28 PM CDT
Astronomical Twilight 5:44 AM CDT 9:02 PM CDT
Moon 1:56 AM CDT (9/24) 5:24 PM CDT (9/24)
Length of Visible Light 13h 02m
Length of Day
12h 04m
Waning Crescent, 23% of the Moon is Illuminated
Sep 24
Waning Crescent
Sep 28
New
Oct 5
First Quarter
Oct 13
Full
Oct 21
Last Quarter

Hourly Weather History & Observations

Time (CDT) Temp. Heat Index Dew Point Humidity Pressure Visibility Wind Dir Wind Speed Gust Speed Precip Events Conditions
12:53 AM 63.0 °F - 57.0 °F 81% 29.81 in 10.0 mi South 9.2 mph - N/A   Clear
1:53 AM 63.0 °F - 57.9 °F 84% 29.79 in 10.0 mi SSE 8.1 mph - N/A   Clear
2:53 AM 64.0 °F - 57.9 °F 80% 29.78 in 10.0 mi SSW 5.8 mph - N/A   Clear
3:53 AM 64.0 °F - 57.0 °F 78% 29.76 in 10.0 mi SSW 5.8 mph - N/A   Clear
4:53 AM 62.1 °F - 55.9 °F 80% 29.75 in 10.0 mi Calm Calm - N/A   Clear
5:53 AM 59.0 °F - 54.0 °F 83% 29.75 in 10.0 mi Calm Calm - N/A   Clear
6:53 AM 57.0 °F - 54.0 °F 89% 29.75 in 10.0 mi SSE 5.8 mph - N/A   Clear
7:53 AM 62.1 °F - 55.0 °F 78% 29.74 in 10.0 mi SSW 11.5 mph - N/A   Clear
8:53 AM 66.0 °F - 55.9 °F 70% 29.72 in 10.0 mi South 9.2 mph - N/A   Clear
9:53 AM 71.1 °F - 57.9 °F 63% 29.70 in 10.0 mi South 5.8 mph - N/A   Clear
10:53 AM 75.9 °F - 62.1 °F 62% 29.69 in 10.0 mi WSW 8.1 mph - N/A   Clear
11:53 AM 77.0 °F - 57.0 °F 50% 29.68 in 10.0 mi WNW 9.2 mph - N/A   Clear
12:53 PM 77.0 °F - 54.0 °F 45% 29.69 in 10.0 mi West 11.5 mph - N/A   Clear
1:53 PM 73.0 °F - 57.0 °F 57% 29.68 in 10.0 mi WNW 13.8 mph - N/A   Clear
2:53 PM 77.0 °F - 57.9 °F 52% 29.66 in 10.0 mi WNW 8.1 mph - N/A   Clear
3:53 PM 79.0 °F - 55.9 °F 45% 29.66 in 10.0 mi NW 11.5 mph - N/A   Clear
4:53 PM 80.1 °F 80.0 °F 54.0 °F 40% 29.66 in 10.0 mi NW 12.7 mph - N/A   Clear
5:53 PM 73.9 °F - 50.0 °F 43% 29.69 in 10.0 mi NW 11.5 mph - N/A   Clear
6:53 PM 71.1 °F - 54.0 °F 55% 29.70 in 10.0 mi WNW 9.2 mph - N/A   Clear
7:53 PM 68.0 °F - 54.0 °F 61% 29.70 in 7.0 mi West 9.2 mph - N/A   Clear
8:53 PM 64.9 °F - 53.1 °F 65% 29.72 in 10.0 mi West 5.8 mph - N/A   Clear
9:53 PM 64.9 °F - 50.0 °F 58% 29.73 in 10.0 mi WNW 9.2 mph - N/A   Clear
10:53 PM 60.1 °F - 51.1 °F 72% 29.71 in 10.0 mi West 6.9 mph - N/A   Clear
11:53 PM 62.1 °F - 50.0 °F 65% 29.71 in 10.0 mi WNW 8.1 mph - N/A   Clear